,,,PA_Meas_PMT16A,,PR_Meas_QMR101_102,,RH_Meas_QMH101,,SR_Meas_QMS101,,TA_Meas_QMH101,,GenWind,,GenWind,
date,time,status,PA,status,PR,status,RH,status,SR,status,TA,status,DirAvg,status,SpdAvg,
2010-04-06, 00:00:04,VALID,1000.74,VALID,0,VALID,92.5778,VALID,0,VALID,22.9776,VALID,48,VALID,0,
2010-04-06, 00:01:04,VALID,1000.71,VALID,0,VALID,92.738,VALID,0,VALID,23.0166,VALID,48,VALID,0,
2010-04-06, 00:02:04,VALID,1000.69,VALID,0,VALID,92.7609,VALID,0.112286,VALID,22.9971,VALID,48,VALID,0,
2010-04-06, 00:03:04,VALID,1000.69,VALID,0,VALID,92.9288,VALID,0,VALID,23.0361,VALID,83,VALID,0,
2010-04-06, 00:04:04,VALID,1000.63,VALID,0,VALID,93.0661,VALID,0,VALID,23.0751,VALID,89,VALID,0,
2010-04-06, 00:05:04,VALID,1000.64,VALID,0,VALID,93.089,VALID,0,VALID,23.0946,VALID,89,VALID,0,
2010-04-06, 00:06:04,VALID,1000.64,VALID,0,VALID,93.1043,VALID,0,VALID,23.1354,VALID,89,VALID,0,
2010-04-06, 00:07:04,VALID,1000.7,VALID,0,VALID,93.1195,VALID,0,VALID,23.1336,VALID,106,VALID,0.374609,
2010-04-06, 00:08:04,VALID,1000.66,VALID,0,VALID,93.1119,VALID,0.112286,VALID,23.1726,VALID,157,VALID,0.353906,
2010-04-06, 00:09:04,VALID,1000.67,VALID,0,VALID,93.1195,VALID,0,VALID,23.1921,VALID,157,VALID,0,
2010-04-06, 00:10:04,VALID,1000.68,VALID,0,VALID,93.0661,VALID,0,VALID,23.2312,VALID,163,VALID,0,
2010-04-06, 00:11:04,VALID,1000.69,VALID,0,VALID,93.0051,VALID,0.112286,VALID,23.2312,VALID,167,VALID,0,
2010-04-06, 00:12:04,VALID,1000.72,VALID,0,VALID,93.0051,VALID,0,VALID,23.2702,VALID,161,VALID,0,
2010-04-06, 00:13:04,VALID,1000.69,VALID,0,VALID,92.9135,VALID,0,VALID,23.2897,VALID,161,VALID,0,
2010-04-06, 00:14:04,VALID,1000.7,VALID,0,VALID,92.8143,VALID,0,VALID,23.2897,VALID,161,VALID,0,
2010-04-06, 00:15:04,VALID,1000.73,VALID,0,VALID,92.7228,VALID,0,VALID,23.2702,VALID,151,VALID,0,
2010-04-06, 00:16:04,VALID,1000.73,VALID,0,VALID,92.6236,VALID,0,VALID,23.2915,VALID,151,VALID,0,
2010-04-06, 00:17:04,VALID,1000.72,VALID,0,VALID,92.5931,VALID,0,VALID,23.2915,VALID,151,VALID,0,
2010-04-06, 00:18:04,VALID,1000.71,VALID,0,VALID,92.5778,VALID,0,VALID,23.2702,VALID,151,VALID,0,
2010-04-06, 00:19:04,VALID,1000.72,VALID,0,VALID,92.5091,VALID,0,VALID,23.2524,VALID,151,VALID,0,
2010-04-06, 00:20:04,VALID,1000.74,VALID,0,VALID,92.4863,VALID,0,VALID,23.2117,VALID,151,VALID,0,
2010-04-06, 00:21:04,VALID,1000.74,VALID,0,VALID,92.5473,VALID,0,VALID,23.2329,VALID,151,VALID,0,
2010-04-06, 00:22:04,VALID,1000.69,VALID,0,VALID,92.6083,VALID,0,VALID,23.2329,VALID,151,VALID,0,
2010-04-06, 00:23:04,VALID,1000.7,VALID,0,VALID,92.5244,VALID,0,VALID,23.1921,VALID,151,VALID,0,
2010-04-06, 00:24:04,VALID,1000.7,VALID,0,VALID,92.4405,VALID,0,VALID,23.1744,VALID,151,VALID,0,
2010-04-06, 00:25:04,VALID,1000.73,VALID,0,VALID,92.5015,VALID,0,VALID,23.1336,VALID,151,VALID,0,
2010-04-06, 00:26:04,VALID,1000.7,VALID,0,VALID,92.4634,VALID,0,VALID,23.0946,VALID,151,VALID,0,
2010-04-06, 00:27:04,VALID,1000.72,VALID,0,VALID,92.4939,VALID,0,VALID,23.0946,VALID,151,VALID,0,
2010-04-06, 00:28:04,VALID,1000.75,VALID,0,VALID,92.471,VALID,0,VALID,23.0751,VALID,151,VALID,0,
2010-04-06, 00:29:04,VALID,1000.73,VALID,0,VALID,92.532,VALID,0,VALID,23.0361,VALID,151,VALID,0,
2010-04-06, 00:30:04,VALID,1000.73,VALID,0,VALID,92.6312,VALID,0,VALID,23.0361,VALID,151,VALID,0,
2010-04-06, 00:31:04,VALID,1000.73,VALID,0,VALID,92.7457,VALID,0,VALID,23.0556,VALID,151,VALID,0,
2010-04-06, 00:32:04,VALID,1000.7,VALID,0,VALID,92.822,VALID,0,VALID,23.0556,VALID,151,VALID,0,
2010-04-06, 00:33:04,VALID,1000.69,VALID,0,VALID,92.8448,VALID,0,VALID,23.0769,VALID,151,VALID,0,
2010-04-06, 00:34:04,VALID,1000.67,VALID,0,VALID,92.8754,VALID,0.112286,VALID,23.0556,VALID,151,VALID,0,
2010-04-06, 00:35:04,VALID,1000.65,VALID,0,VALID,92.8983,VALID,0,VALID,23.0769,VALID,151,VALID,0,
2010-04-06, 00:36:04,VALID,1000.62,VALID,0,VALID,92.9364,VALID,0,VALID,23.0769,VALID,151,VALID,0,
2010-04-06, 00:37:04,VALID,1000.63,VALID,0,VALID,92.9745,VALID,0,VALID,23.0964,VALID,151,VALID,0,
2010-04-06, 00:38:04,VALID,1000.6,VALID,0,VALID,92.9059,VALID,0,VALID,23.0573,VALID,151,VALID,0,
2010-04-06, 00:39:04,VALID,1000.61,VALID,0,VALID,92.9059,VALID,0,VALID,23.0166,VALID,151,VALID,0,
2010-04-06, 00:40:04,VALID,1000.62,VALID,0,VALID,92.9822,VALID,0,VALID,23.0378,VALID,151,VALID,0,
2010-04-06, 00:41:04,VALID,1000.59,VALID,0,VALID,93.0432,VALID,0,VALID,23.0378,VALID,151,VALID,0,
2010-04-06, 00:42:04,VALID,1000.62,VALID,0,VALID,93.0966,VALID,0,VALID,23.0378,VALID,151,VALID,0,
2010-04-06, 00:43:04,VALID,1000.62,VALID,0,VALID,93.1119,VALID,0,VALID,22.9971,VALID,151,VALID,0,
2010-04-06, 00:44:04,VALID,1000.59,VALID,0,VALID,93.0966,VALID,0,VALID,22.9988,VALID,151,VALID,0,
2010-04-06, 00:45:04,VALID,1000.59,VALID,0,VALID,93.1882,VALID,0,VALID,22.9988,VALID,151,VALID,0,
2010-04-06, 00:46:04,VALID,1000.56,VALID,0,VALID,93.1958,VALID,0,VALID,22.9971,VALID,151,VALID,0,
2010-04-06, 00:47:04,VALID,1000.57,VALID,0,VALID,93.1958,VALID,0,VALID,23.0183,VALID,151,VALID,0,
2010-04-06, 00:48:04,VALID,1000.54,VALID,0,VALID,93.3103,VALID,0,VALID,23.0378,VALID,151,VALID,0,
2010-04-06, 00:49:04,VALID,1000.54,VALID,0,VALID,93.2645,VALID,0,VALID,22.9971,VALID,151,VALID,0,
2010-04-06, 00:50:04,VALID,1000.52,VALID,0,VALID,93.2797,VALID,0,VALID,22.9988,VALID,131,VALID,0,
2010-04-06, 00:51:04,VALID,1000.5,VALID,0,VALID,93.3789,VALID,0,VALID,23.0378,VALID,79,VALID,0,
2010-04-06, 00:52:04,VALID,1000.45,VALID,0,VALID,93.4323,VALID,0,VALID,23.0166,VALID,79,VALID,0,
2010-04-06, 00:53:04,VALID,1000.43,VALID,0,VALID,93.4476,VALID,0,VALID,23.0769,VALID,79,VALID,0,
2010-04-06, 00:54:04,VALID,1000.43,VALID,0,VALID,93.4247,VALID,0,VALID,23.0573,VALID,79,VALID,0,
2010-04-06, 00:55:04,VALID,1000.39,VALID,0,VALID,93.4094,VALID,0,VALID,23.0573,VALID,79,VALID,0,
2010-04-06, 00:56:04,VALID,1000.39,VALID,0,VALID,93.3942,VALID,0,VALID,23.0166,VALID,79,VALID,0,
2010-04-06, 00:57:04,VALID,1000.34,VALID,0,VALID,93.4247,VALID,0,VALID,23.0166,VALID,79,VALID,0,
2010-04-06, 00:58:04,VALID,1000.34,VALID,0,VALID,93.4171,VALID,0,VALID,23.0378,VALID,79,VALID,0,
2010-04-06, 00:59:04,VALID,1000.3,VALID,0,VALID,93.4171,VALID,0,VALID,23.0378,VALID,79,VALID,0,
2010-04-06, 01:00:04,VALID,1000.27,VALID,0,VALID,93.4247,VALID,0,VALID,23.0166,VALID,79,VALID,0,
2010-04-06, 01:01:04,VALID,1000.23,VALID,0,VALID,93.4323,VALID,0,VALID,23.0183,VALID,79,VALID,0,
2010-04-06, 01:02:04,VALID,1000.21,VALID,0,VALID,93.4552,VALID,0,VALID,23.0378,VALID,79,VALID,0,
2010-04-06, 01:03:04,VALID,1000.2,VALID,0,VALID,93.4934,VALID,0,VALID,23.0378,VALID,79,VALID,0,
2010-04-06, 01:04:04,VALID,1000.18,VALID,0,VALID,93.562,VALID,0,VALID,23.0361,VALID,79,VALID,0,
2010-04-06, 01:05:04,VALID,1000.17,VALID,0,VALID,93.5773,VALID,0,VALID,23.1159,VALID,84,VALID,0,
2010-04-06, 01:06:04,VALID,1000.11,VALID,0,VALID,93.5849,VALID,0,VALID,23.1354,VALID,112,VALID,0,
2010-04-06, 01:07:04,VALID,1000.1,VALID,0,VALID,93.5468,VALID,0,VALID,23.1549,VALID,119,VALID,0,
2010-04-06, 01:08:04,VALID,1000.06,VALID,0,VALID,93.4934,VALID,0,VALID,23.1354,VALID,127,VALID,0,
2010-04-06, 01:09:04,VALID,1000.05,VALID,0,VALID,93.4094,VALID,0.112286,VALID,23.1354,VALID,127,VALID,0,
2010-04-06, 01:10:04,VALID,1000,VALID,0,VALID,93.356,VALID,0,VALID,23.1354,VALID,127,VALID,0,
2010-04-06, 01:11:04,VALID,999.987,VALID,0,VALID,93.3484,VALID,0,VALID,23.1354,VALID,127,VALID,0,
2010-04-06, 01:12:04,VALID,999.96,VALID,0,VALID,93.3255,VALID,0,VALID,23.1354,VALID,127,VALID,0,
2010-04-06, 01:13:04,VALID,999.937,VALID,0,VALID,93.3103,VALID,0,VALID,23.1159,VALID,127,VALID,0,
2010-04-06, 01:14:04,VALID,999.88,VALID,0,VALID,93.234,VALID,0,VALID,23.0769,VALID,127,VALID,0,
2010-04-06, 01:15:04,VALID,999.854,VALID,0,VALID,93.2111,VALID,0,VALID,23.0573,VALID,127,VALID,0,
2010-04-06, 01:16:04,VALID,999.869,VALID,0,VALID,93.1653,VALID,0,VALID,23.0378,VALID,127,VALID,0,
2010-04-06, 01:17:04,VALID,999.818,VALID,0,VALID,93.1348,VALID,0,VALID,22.9793,VALID,127,VALID,0,
2010-04-06, 01:18:04,VALID,999.824,VALID,0,VALID,93.1043,VALID,0,VALID,22.9403,VALID,127,VALID,0,
2010-04-06, 01:19:04,VALID,999.774,VALID,0,VALID,93.0966,VALID,0,VALID,22.9403,VALID,127,VALID,0,
2010-04-06, 01:20:04,VALID,999.768,VALID,0,VALID,93.1271,VALID,0,VALID,22.9013,VALID,127,VALID,0,
2010-04-06, 01:21:04,VALID,999.747,VALID,0,VALID,93.1958,VALID,0,VALID,22.88,VALID,127,VALID,0,
2010-04-06, 01:22:04,VALID,999.729,VALID,0,VALID,93.2797,VALID,0,VALID,22.9208,VALID,127,VALID,0,
2010-04-06, 01:23:04,VALID,999.695,VALID,0,VALID,93.3408,VALID,0,VALID,22.9403,VALID,127,VALID,0,
2010-04-06, 01:24:04,VALID,999.681,VALID,0,VALID,93.3637,VALID,0,VALID,22.919,VALID,127,VALID,0,
2010-04-06, 01:25:04,VALID,999.673,VALID,0,VALID,93.3179,VALID,0,VALID,22.9208,VALID,127,VALID,0,
2010-04-06, 01:26:04,VALID,999.687,VALID,0,VALID,93.3866,VALID,0,VALID,22.9013,VALID,124,VALID,0,
2010-04-06, 01:27:04,VALID,999.696,VALID,0,VALID,93.4247,VALID,0,VALID,22.919,VALID,101,VALID,0,
2010-04-06, 01:28:04,VALID,999.666,VALID,0,VALID,93.4705,VALID,0,VALID,22.8995,VALID,101,VALID,0,
2010-04-06, 01:29:04,VALID,999.672,VALID,0,VALID,93.4476,VALID,0,VALID,22.9208,VALID,101,VALID,0,
2010-04-06, 01:30:04,VALID,999.675,VALID,0,VALID,93.295,VALID,0,VALID,22.802,VALID,101,VALID,0,
2010-04-06, 01:31:04,VALID,999.654,VALID,0,VALID,93.3408,VALID,0,VALID,22.8037,VALID,101,VALID,0,
2010-04-06, 01:32:04,VALID,999.705,VALID,0,VALID,93.4018,VALID,0,VALID,22.7842,VALID,101,VALID,0,
2010-04-06, 01:33:04,VALID,999.706,VALID,0,VALID,93.4705,VALID,0,VALID,22.8037,VALID,101,VALID,0,
2010-04-06, 01:34:04,VALID,999.729,VALID,0,VALID,93.4857,VALID,0,VALID,22.7842,VALID,101,VALID,0,
2010-04-06, 01:35:04,VALID,999.742,VALID,0,VALID,93.4934,VALID,0,VALID,22.763,VALID,101,VALID,0,
2010-04-06, 01:36:04,VALID,999.74,VALID,0,VALID,93.4857,VALID,0,VALID,22.7435,VALID,101,VALID,0,
2010-04-06, 01:37:04,VALID,999.719,VALID,0,VALID,93.501,VALID,0,VALID,22.7647,VALID,101,VALID,0,
2010-04-06, 01:38:04,VALID,999.736,VALID,0,VALID,93.5391,VALID,0,VALID,22.7452,VALID,101,VALID,0,
2010-04-06, 01:39:04,VALID,999.684,VALID,0,VALID,93.5926,VALID,0,VALID,22.7452,VALID,101,VALID,0,
2010-04-06, 01:40:04,VALID,999.688,VALID,0,VALID,93.6383,VALID,0,VALID,22.7647,VALID,101,VALID,0,
2010-04-06, 01:41:04,VALID,999.684,VALID,0,VALID,93.6765,VALID,0,VALID,22.7825,VALID,101,VALID,0,
2010-04-06, 01:42:04,VALID,999.683,VALID,0,VALID,93.6917,VALID,0,VALID,22.8037,VALID,101,VALID,0,
2010-04-06, 01:43:04,VALID,999.688,VALID,0,VALID,93.707,VALID,0,VALID,22.8232,VALID,101,VALID,0,
2010-04-06, 01:44:04,VALID,999.681,VALID,0,VALID,93.7757,VALID,0,VALID,22.8427,VALID,101,VALID,0,
2010-04-06, 01:45:04,VALID,999.68,VALID,0,VALID,93.8138,VALID,0,VALID,22.8427,VALID,101,VALID,0,
2010-04-06, 01:46:04,VALID,999.683,VALID,0,VALID,93.8062,VALID,0,VALID,22.9013,VALID,101,VALID,0,
2010-04-06, 01:47:04,VALID,999.664,VALID,0,VALID,93.7833,VALID,0,VALID,22.8623,VALID,101,VALID,0,
2010-04-06, 01:48:05,VALID,999.65,VALID,0,VALID,93.8214,VALID,0,VALID,22.9013,VALID,101,VALID,0,
2010-04-06, 01:49:05,VALID,999.6,VALID,0,VALID,93.8291,VALID,0,VALID,22.9208,VALID,101,VALID,0,
2010-04-06, 01:50:05,VALID,999.584,VALID,0,VALID,93.8291,VALID,0,VALID,22.919,VALID,101,VALID,0,
2010-04-06, 01:51:05,VALID,999.539,VALID,0,VALID,93.8291,VALID,0,VALID,22.9403,VALID,101,VALID,0,
2010-04-06, 01:52:05,VALID,999.499,VALID,0,VALID,93.8062,VALID,0,VALID,22.9403,VALID,101,VALID,0,
2010-04-06, 01:53:05,VALID,999.463,VALID,0,VALID,93.768,VALID,0,VALID,22.9013,VALID,125,VALID,0,
2010-04-06, 01:54:05,VALID,999.441,VALID,0,VALID,93.7451,VALID,0,VALID,22.8818,VALID,142,VALID,0,
2010-04-06, 01:55:05,VALID,999.392,VALID,0,VALID,93.7909,VALID,0,VALID,22.8623,VALID,142,VALID,0,
2010-04-06, 01:56:05,VALID,999.391,VALID,0,VALID,93.7375,VALID,0,VALID,22.8427,VALID,136,VALID,0,
2010-04-06, 01:57:05,VALID,999.347,VALID,0,VALID,93.707,VALID,0,VALID,22.8215,VALID,126,VALID,0.889453,
2010-04-06, 01:58:05,VALID,999.359,VALID,0,VALID,93.7146,VALID,0,VALID,22.8232,VALID,127,VALID,0.6625,
2010-04-06, 01:59:05,VALID,999.369,VALID,0,VALID,93.6994,VALID,0,VALID,22.8427,VALID,127,VALID,0.644922,
2010-04-06, 02:00:05,VALID,999.37,VALID,0,VALID,93.6307,VALID,0,VALID,22.8427,VALID,127,VALID,0.698047,
2010-04-06, 02:01:05,VALID,999.347,VALID,0,VALID,93.5849,VALID,0,VALID,22.8427,VALID,127,VALID,0.846484,
2010-04-06, 02:02:05,VALID,999.38,VALID,0,VALID,93.5163,VALID,0,VALID,22.8215,VALID,131,VALID,0.833984,
2010-04-06, 02:03:05,VALID,999.372,VALID,0,VALID,93.4781,VALID,0,VALID,22.8427,VALID,131,VALID,0.846875,
2010-04-06, 02:04:05,VALID,999.366,VALID,0,VALID,93.4476,VALID,0,VALID,22.8427,VALID,131,VALID,0.823828,
2010-04-06, 02:05:05,VALID,999.356,VALID,0,VALID,93.3637,VALID,0,VALID,22.8215,VALID,131,VALID,0.913281,
2010-04-06, 02:06:05,VALID,999.344,VALID,0,VALID,93.3179,VALID,0,VALID,22.8232,VALID,131,VALID,0.819922,
2010-04-06, 02:07:05,VALID,999.342,VALID,0,VALID,93.2645,VALID,0,VALID,22.802,VALID,132,VALID,0.851172,
2010-04-06, 02:08:05,VALID,999.319,VALID,0,VALID,93.2034,VALID,0,VALID,22.8037,VALID,131,VALID,0.728906,
2010-04-06, 02:09:05,VALID,999.304,VALID,0,VALID,93.1958,VALID,0,VALID,22.7647,VALID,126,VALID,0.88125,
2010-04-06, 02:10:05,VALID,999.294,VALID,0,VALID,93.2492,VALID,0,VALID,22.7842,VALID,121,VALID,0.892578,
2010-04-06, 02:11:05,VALID,999.306,VALID,0,VALID,93.2187,VALID,0,VALID,22.7647,VALID,121,VALID,0.589063,
2010-04-06, 02:12:05,VALID,999.289,VALID,0,VALID,93.1882,VALID,0,VALID,22.7435,VALID,121,VALID,0.271484,
2010-04-06, 02:13:05,VALID,999.289,VALID,0,VALID,93.1577,VALID,0,VALID,22.7452,VALID,121,VALID,0.270312,
2010-04-06, 02:14:05,VALID,999.314,VALID,0,VALID,93.1424,VALID,0,VALID,22.7045,VALID,120,VALID,0.415625,
2010-04-06, 02:15:05,VALID,999.292,VALID,0,VALID,93.1424,VALID,0.112286,VALID,22.7045,VALID,83,VALID,0.612891,
2010-04-06, 02:16:05,VALID,999.278,VALID,0,VALID,93.1653,VALID,0,VALID,22.6867,VALID,78,VALID,0.782422,
2010-04-06, 02:17:05,VALID,999.262,VALID,0,VALID,93.1729,VALID,0,VALID,22.7079,VALID,81,VALID,0.773438,
2010-04-06, 02:18:05,VALID,999.243,VALID,0,VALID,93.2034,VALID,0,VALID,22.6884,VALID,81,VALID,0.707812,
2010-04-06, 02:19:05,VALID,999.232,VALID,0,VALID,93.2568,VALID,0.112286,VALID,22.6655,VALID,81,VALID,0.776953,
2010-04-06, 02:20:05,VALID,999.189,VALID,0,VALID,93.2263,VALID,0,VALID,22.6672,VALID,81,VALID,0.675781,
2010-04-06, 02:21:05,VALID,999.198,VALID,0,VALID,93.2568,VALID,0,VALID,22.6672,VALID,77,VALID,0.643359,
2010-04-06, 02:22:05,VALID,999.149,VALID,0,VALID,93.2111,VALID,0,VALID,22.646,VALID,67,VALID,0.760547,
2010-04-06, 02:23:05,VALID,999.151,VALID,0,VALID,93.2492,VALID,0.112286,VALID,22.6477,VALID,63,VALID,0.873828,
2010-04-06, 02:24:05,VALID,999.148,VALID,0,VALID,93.2568,VALID,0,VALID,22.646,VALID,61,VALID,0.771875,
2010-04-06, 02:25:05,VALID,999.161,VALID,0,VALID,93.2416,VALID,0,VALID,22.6264,VALID,59,VALID,0.777344,
2010-04-06, 02:26:05,VALID,999.12,VALID,0,VALID,93.234,VALID,0,VALID,22.6477,VALID,74,VALID,0.629297,
2010-04-06, 02:27:05,VALID,999.156,VALID,0,VALID,93.2416,VALID,0,VALID,22.6672,VALID,84,VALID,0.0410156,
2010-04-06, 02:28:05,VALID,999.147,VALID,0,VALID,93.2492,VALID,0,VALID,22.6477,VALID,84,VALID,0,
2010-04-06, 02:29:05,VALID,999.131,VALID,0,VALID,93.2645,VALID,0,VALID,22.6672,VALID,84,VALID,0,
2010-04-06, 02:30:05,VALID,999.159,VALID,0,VALID,93.2645,VALID,0,VALID,22.646,VALID,84,VALID,0.497266,
2010-04-06, 02:31:05,VALID,999.131,VALID,0,VALID,93.2645,VALID,0,VALID,22.646,VALID,84,VALID,0,
2010-04-06, 02:32:05,VALID,999.155,VALID,0,VALID,93.2492,VALID,0,VALID,22.6655,VALID,84,VALID,0,
2010-04-06, 02:33:05,VALID,999.167,VALID,0,VALID,93.2797,VALID,0,VALID,22.7062,VALID,84,VALID,0,
2010-04-06, 02:34:05,VALID,999.189,VALID,0,VALID,93.2416,VALID,0,VALID,22.6867,VALID,84,VALID,0,
2010-04-06, 02:35:05,VALID,999.173,VALID,0,VALID,93.2187,VALID,0,VALID,22.6867,VALID,84,VALID,0,
2010-04-06, 02:36:05,VALID,999.192,VALID,0,VALID,93.2492,VALID,0,VALID,22.6672,VALID,84,VALID,0,
2010-04-06, 02:37:05,VALID,999.178,VALID,0,VALID,93.234,VALID,0,VALID,22.6672,VALID,84,VALID,0,
2010-04-06, 02:38:05,VALID,999.182,VALID,0,VALID,93.2721,VALID,0,VALID,22.6672,VALID,84,VALID,0,
2010-04-06, 02:39:05,VALID,999.145,VALID,0,VALID,93.3179,VALID,0,VALID,22.6867,VALID,84,VALID,0,
2010-04-06, 02:40:05,VALID,999.139,VALID,0,VALID,93.3103,VALID,0,VALID,22.6672,VALID,84,VALID,0,
2010-04-06, 02:41:05,VALID,999.141,VALID,0,VALID,93.3255,VALID,0,VALID,22.6672,VALID,42,VALID,0,
2010-04-06, 02:42:05,VALID,999.144,VALID,0,VALID,93.3866,VALID,0,VALID,22.6867,VALID,35,VALID,0,
2010-04-06, 02:43:05,VALID,999.124,VALID,0,VALID,93.5239,VALID,0,VALID,22.7452,VALID,31,VALID,1.27109,
2010-04-06, 02:44:05,VALID,999.14,VALID,0,VALID,93.4705,VALID,0,VALID,22.7842,VALID,38,VALID,0.638281,
2010-04-06, 02:45:05,VALID,999.161,VALID,0,VALID,93.3331,VALID,0,VALID,22.7647,VALID,24,VALID,0.503125,
2010-04-06, 02:46:05,VALID,999.111,VALID,0,VALID,93.2721,VALID,0,VALID,22.7435,VALID,24,VALID,0.258203,
2010-04-06, 02:47:05,VALID,999.135,VALID,0,VALID,93.2492,VALID,0,VALID,22.7647,VALID,24,VALID,0,
2010-04-06, 02:48:05,VALID,999.127,VALID,0,VALID,93.2874,VALID,0,VALID,22.7842,VALID,24,VALID,0,
2010-04-06, 02:49:05,VALID,999.123,VALID,0,VALID,93.2263,VALID,0,VALID,22.7647,VALID,24,VALID,0,
2010-04-06, 02:50:05,VALID,999.069,VALID,0,VALID,93.2111,VALID,0,VALID,22.7647,VALID,24,VALID,0,
2010-04-06, 02:51:05,VALID,999.108,VALID,0,VALID,93.2034,VALID,0,VALID,22.7452,VALID,24,VALID,0,
2010-04-06, 02:52:05,VALID,999.124,VALID,0,VALID,93.2034,VALID,0,VALID,22.7452,VALID,24,VALID,0,
2010-04-06, 02:53:05,VALID,999.08,VALID,0,VALID,93.2721,VALID,0,VALID,22.7647,VALID,24,VALID,0,
2010-04-06, 02:54:05,VALID,999.036,VALID,0,VALID,93.3103,VALID,0,VALID,22.7647,VALID,24,VALID,0.00898437,
2010-04-06, 02:55:05,VALID,999.035,VALID,0,VALID,93.3789,VALID,0,VALID,22.7842,VALID,119,VALID,0.535547,
2010-04-06, 02:56:05,VALID,999.07,VALID,0,VALID,93.356,VALID,0,VALID,22.7842,VALID,119,VALID,0.783203,
2010-04-06, 02:57:05,VALID,999.044,VALID,0,VALID,93.3637,VALID,0,VALID,22.8427,VALID,119,VALID,0.574609,
2010-04-06, 02:58:05,VALID,999.088,VALID,0,VALID,93.3255,VALID,0,VALID,22.8623,VALID,120,VALID,0.695313,
2010-04-06, 02:59:05,VALID,999.056,VALID,0,VALID,93.2416,VALID,0,VALID,22.8623,VALID,121,VALID,0.281641,
2010-04-06, 03:00:05,VALID,999.043,VALID,0,VALID,93.1882,VALID,0,VALID,22.8623,VALID,121,VALID,0.442969,
2010-04-06, 03:01:05,VALID,999.059,VALID,0,VALID,93.089,VALID,0,VALID,22.8623,VALID,121,VALID,0.2875,
2010-04-06, 03:02:05,VALID,999.024,VALID,0,VALID,93.0508,VALID,0,VALID,22.8605,VALID,121,VALID,0,
2010-04-06, 03:03:05,VALID,999.051,VALID,0,VALID,93.0661,VALID,0,VALID,22.8623,VALID,120,VALID,0,
2010-04-06, 03:04:05,VALID,999.049,VALID,0,VALID,93.028,VALID,0,VALID,22.841,VALID,97,VALID,0.676562,
2010-04-06, 03:05:05,VALID,999.031,VALID,0,VALID,92.9669,VALID,0,VALID,22.8623,VALID,97,VALID,0.673047,
2010-04-06, 03:06:05,VALID,999.041,VALID,0,VALID,92.9974,VALID,0,VALID,22.8623,VALID,93,VALID,0.626172,
2010-04-06, 03:07:05,VALID,999.072,VALID,0,VALID,93.0051,VALID,0,VALID,22.8818,VALID,81,VALID,0.407031,
2010-04-06, 03:08:05,VALID,999.047,VALID,0,VALID,93.0203,VALID,0,VALID,22.8605,VALID,81,VALID,0.234375,
2010-04-06, 03:09:05,VALID,999.042,VALID,0,VALID,93.0203,VALID,0,VALID,22.8818,VALID,81,VALID,0.408984,
2010-04-06, 03:10:05,VALID,999.05,VALID,0,VALID,93.0661,VALID,0,VALID,22.8995,VALID,81,VALID,0.344141,
2010-04-06, 03:11:05,VALID,999.045,VALID,0,VALID,93.0432,VALID,0,VALID,22.9208,VALID,81,VALID,0.317187,
2010-04-06, 03:12:05,VALID,999.046,VALID,0,VALID,93.0737,VALID,0,VALID,22.9403,VALID,81,VALID,0.164063,
2010-04-06, 03:13:05,VALID,999.058,VALID,0,VALID,93.0585,VALID,0,VALID,22.9403,VALID,81,VALID,0,
2010-04-06, 03:14:05,VALID,999.048,VALID,0,VALID,93.0051,VALID,0,VALID,22.9598,VALID,81,VALID,0,
2010-04-06, 03:15:05,VALID,999.046,VALID,0,VALID,93.0051,VALID,0,VALID,22.9403,VALID,81,VALID,0,
2010-04-06, 03:16:05,VALID,999.099,VALID,0,VALID,92.9745,VALID,0,VALID,22.9403,VALID,81,VALID,0,
2010-04-06, 03:17:05,VALID,999.103,VALID,0,VALID,92.944,VALID,0,VALID,22.9403,VALID,81,VALID,0,
2010-04-06, 03:18:05,VALID,999.102,VALID,0,VALID,92.9288,VALID,0,VALID,22.9208,VALID,81,VALID,0,
2010-04-06, 03:19:05,VALID,999.115,VALID,0,VALID,92.9059,VALID,0,VALID,22.9013,VALID,81,VALID,0,
2010-04-06, 03:20:05,VALID,999.125,VALID,0,VALID,92.9059,VALID,0,VALID,22.8835,VALID,81,VALID,0,
2010-04-06, 03:21:05,VALID,999.128,VALID,0,VALID,92.9059,VALID,0,VALID,22.8623,VALID,81,VALID,0,
2010-04-06, 03:22:05,VALID,999.163,VALID,0,VALID,92.9211,VALID,0,VALID,22.8623,VALID,81,VALID,0.0566406,
2010-04-06, 03:23:05,VALID,999.187,VALID,0,VALID,93.0432,VALID,0,VALID,22.8623,VALID,41,VALID,0.527344,
2010-04-06, 03:24:05,VALID,999.201,VALID,0,VALID,93.028,VALID,0,VALID,22.8427,VALID,39,VALID,0.510938,
2010-04-06, 03:25:05,VALID,999.214,VALID,0,VALID,93.0127,VALID,0,VALID,22.8232,VALID,36,VALID,0.153516,
2010-04-06, 03:26:05,VALID,999.23,VALID,0,VALID,92.9974,VALID,0,VALID,22.8037,VALID,36,VALID,0.0550781,
2010-04-06, 03:27:05,VALID,999.292,VALID,0,VALID,93.0661,VALID,0,VALID,22.8232,VALID,36,VALID,0,
2010-04-06, 03:28:05,VALID,999.286,VALID,0,VALID,93.1271,VALID,0,VALID,22.8232,VALID,36,VALID,0,
2010-04-06, 03:29:05,VALID,999.256,VALID,0,VALID,93.15,VALID,0,VALID,22.802,VALID,36,VALID,0.0851562,
2010-04-06, 03:30:05,VALID,999.251,VALID,0,VALID,93.1958,VALID,0,VALID,22.8232,VALID,36,VALID,0.383984,
2010-04-06, 03:31:05,VALID,999.261,VALID,0,VALID,93.1958,VALID,0,VALID,22.8232,VALID,36,VALID,0.353125,
2010-04-06, 03:32:05,VALID,999.254,VALID,0,VALID,93.1805,VALID,0,VALID,22.8232,VALID,36,VALID,0.0894531,
2010-04-06, 03:33:05,VALID,999.247,VALID,0,VALID,93.1882,VALID,0,VALID,22.8037,VALID,36,VALID,0,
2010-04-06, 03:34:05,VALID,999.28,VALID,0,VALID,93.2034,VALID,0,VALID,22.8232,VALID,36,VALID,0,
2010-04-06, 03:35:05,VALID,999.274,VALID,0,VALID,93.234,VALID,0,VALID,22.8427,VALID,36,VALID,0,
2010-04-06, 03:36:05,VALID,999.279,VALID,0,VALID,93.2568,VALID,0,VALID,22.8623,VALID,36,VALID,0,
2010-04-06, 03:37:05,VALID,999.28,VALID,0,VALID,93.3026,VALID,0,VALID,22.8623,VALID,36,VALID,0.090625,
2010-04-06, 03:38:05,VALID,999.247,VALID,0,VALID,93.3789,VALID,0,VALID,22.88,VALID,60,VALID,0.585547,
2010-04-06, 03:39:05,VALID,999.265,VALID,0,VALID,93.356,VALID,0,VALID,22.9208,VALID,81,VALID,0.615625,
2010-04-06, 03:40:05,VALID,999.315,VALID,0,VALID,93.356,VALID,0,VALID,22.9208,VALID,80,VALID,0.203516,
2010-04-06, 03:41:05,VALID,999.308,VALID,0,VALID,93.3255,VALID,0,VALID,22.9403,VALID,309,VALID,0.696875,
2010-04-06, 03:42:05,VALID,999.353,VALID,0,VALID,93.3026,VALID,0,VALID,22.9403,VALID,309,VALID,0.392969,
2010-04-06, 03:43:05,VALID,999.367,VALID,0,VALID,93.2797,VALID,0,VALID,22.919,VALID,309,VALID,0.277344,
2010-04-06, 03:44:05,VALID,999.414,VALID,0,VALID,93.2416,VALID,0,VALID,22.9598,VALID,309,VALID,0,
2010-04-06, 03:45:05,VALID,999.422,VALID,0,VALID,93.2492,VALID,0,VALID,22.9598,VALID,309,VALID,0,
2010-04-06, 03:46:05,VALID,999.425,VALID,0,VALID,93.2568,VALID,0,VALID,22.9793,VALID,310,VALID,0.0480469,
2010-04-06, 03:47:05,VALID,999.44,VALID,0,VALID,93.2263,VALID,0,VALID,22.9988,VALID,77,VALID,0.723047,
2010-04-06, 03:48:05,VALID,999.458,VALID,0,VALID,93.1958,VALID,0,VALID,23.0378,VALID,78,VALID,0.81875,
2010-04-06, 03:49:05,VALID,999.453,VALID,0,VALID,93.1195,VALID,0,VALID,23.0378,VALID,82,VALID,0.598437,
2010-04-06, 03:50:05,VALID,999.444,VALID,0,VALID,93.0432,VALID,0,VALID,23.0573,VALID,83,VALID,0.344922,
2010-04-06, 03:51:05,VALID,999.458,VALID,0,VALID,92.9822,VALID,0,VALID,23.0573,VALID,83,VALID,0,
2010-04-06, 03:52:05,VALID,999.479,VALID,0,VALID,92.8983,VALID,0,VALID,23.0573,VALID,83,VALID,0,
2010-04-06, 03:53:05,VALID,999.499,VALID,0,VALID,92.8983,VALID,0,VALID,23.0573,VALID,83,VALID,0,
2010-04-06, 03:54:05,VALID,999.473,VALID,0,VALID,92.8906,VALID,0,VALID,23.0769,VALID,83,VALID,0,
2010-04-06, 03:55:05,VALID,999.464,VALID,0,VALID,92.9211,VALID,0,VALID,23.0769,VALID,83,VALID,0,